Wind_Speed
8 8 7 7 6 5 5 4 4 4 3 3 3 2 1 0 1 2 2 2 4 4 4 4 4 4 4 4 5 5 4 4 4 5 5 4 5 6 6 7 7 8 7
9 9 8 8 7 6 5 4 4 4 3 3 2 2 2 1 0 1 1 2 3 3 3 4 4 4 4 4 5 5 5 5 5 5 5 5 5 5 5 6 7 7 7
10 9 9 8 7 6 5 4 4 3 3 3 3 2 2 2 1 0 0 1 2 3 3 4 4 4 4 4 5 5 5 6 6 5 5 6 5 5 5 6 6 6 7
9 9 8 8 7 6 5 5 4 3 3 2 2 2 2 2 2 1 1 1 2 3 3 4 3 3 4 4 4 5 5 6 6 6 6 6 5 5 5 6 6 6 7
10 9 8 7 7 6 6 5 4 4 4 3 3 3 3 3 3 3 2 1 2 3 3 3 3 2 3 4 4 4 5 5 6 6 6 6 5 5 6 6 6 7 7
10 9 9 8 7 6 6 5 4 4 5 5 4 4 3 3 3 3 3 3 2 2 3 3 3 2 1 2 3 4 4 4 6 6 6 6 5 6 6 6 6 7 7
10 9 9 8 7 7 6 6 6 6 6 5 5 4 4 4 3 3 3 3 2 1 1 2 3 2 2 2 3 4 3 4 5 5 6 6 6 5 5 6 7 8 7
11 10 10 9 8 7 6 6 6 6 6 5 5 4 4 4 4 3 3 3 1 1 1 2 1 1 1 2 2 3 3 4 5 6 6 6 6 6 6 6 7 8 7
12 11 11 10 8 7 7 7 7 6 6 6 5 5 5 4 5 4 3 3 2 2 1 1 0 1 2 2 2 2 3 3 4 6 6 6 6 5 6 7 7 7 7
11 11 11 10 9 8 7 7 7 7 6 6 6 6 5 4 4 4 3 3 3 2 2 1 0 1 1 2 2 2 2 2 3 4 5 5 6 5 5 6 7 8 8
11 11 10 10 10 8 7 7 7 6 6 6 6 6 5 5 4 3 3 2 2 2 1 1 1 2 2 2 2 2 2 3 3 4 5 5 6 6 6 6 7 8 9
11 10 10 10 10 9 8 7 7 6 5 5 5 5 5 5 5 4 3 2 2 1 1 2 2 2 2 3 3 3 3 4 4 5 5 5 5 6 7 7 7 8 9
12 11 10 10 10 9 8 7 7 7 6 6 6 6 6 6 5 4 3 2 2 2 2 2 3 3 3 3 3 3 4 4 5 5 5 5 6 7 8 8 7 8 9
11 11 11 10 10 10 9 8 7 7 7 6 6 6 6 5 5 5 5 4 3 3 3 3 3 3 3 3 3 4 5 5 5 5 6 5 5 6 7 8 9 9 9
12 11 10 9 10 9 9 8 7 6 7 7 6 6 6 6 5 5 6 5 4 4 4 3 3 3 3 3 4 4 4 4 5 5 6 6 6 6 6 7 9 10 10
12 11 11 10 10 9 9 8 7 6 7 6 6 6 7 6 5 5 6 5 5 4 4 4 3 3 3 3 4 4 4 4 4 4 5 6 6 6 6 7 8 9 10
11 11 11 11 10 10 10 9 8 8 7 7 6 6 6 6 6 6 5 5 4 4 4 4 4 4 4 4 4 5 4 4 3 4 4 5 6 6 7 8 9 9 10
12 11 10 11 10 10 9 9 8 7 7 6 6 7 6 6 6 6 5 5 4 4 4 4 4 4 4 5 5 5 6 5 4 4 5 5 6 6 7 8 9 10 11
11 11 10 10 11 11 10 9 9 7 7 6 6 7 7 6 6 5 5 5 4 4 4 4 4 4 5 5 5 5 5 5 5 5 6 6 6 7 8 8 9 11 11
11 10 10 10 11 11 11 9 8 7 6 6 7 6 6 6 6 6 6 5 5 5 4 5 5 5 6 6 6 5 5 5 5 5 6 6 7 7 7 8 9 10 11
11 11 11 11 11 10 10 9 8 7 6 7 6 6 6 7 7 7 7 6 6 6 5 5 5 5 6 6 7 6 5 6 6 7 7 7 7 8 8 9 9 10 10
10 10 10 11 11 10 10 9 8 8 7 7 7 7 7 7 8 8 8 7 7 6 6 6 6 6 7 7 6 6 7 7 7 8 8 8 8 8 9 10 10 10 10
11 11 10 11 11 10 9 9 8 8 8 7 8 8 8 9 9 9 8 8 8 7 7 7 7 7 7 7 6 7 7 7 8 8 8 9 8 8 9 10 10 11 11
11 11 11 11 11 11 9 9 9 9 9 9 9 9 9 10 9 9 9 9 8 8 8 8 8 8 8 8 9 9 9 9 9 10 10 10 10 10 11 11 11 11 11
11 11 11 12 12 12 11 10 10 9 9 9 9 10 10 10 10 10 9 9 9 9 9 9 10 10 10 10 11 11 11 11 11 11 11 12 12 12 13 13 12 12 13
12 12 12 12 12 12 12 11 11 11 10 10 10 11 11 11 11 10 10 10 10 10 10 11 12 12 12 12 13 13 13 13 13 13 13 13 14 15 15 15 14 14 14
Wind_Direction
49 46 44 46 47 45 42 46 50 67 74 71 65 53 51 114 191 244 250 221 200 197 203 196 196 206 209 205 209 214 215 208 205 205 208 213 209 198 200 200 196 193 194
48 48 48 48 48 50 52 55 62 62 60 60 53 50 53 62 51 263 240 206 200 201 204 202 195 205 221 215 218 220 220 216 214 216 215 212 204 201 198 197 195 191 192
43 47 50 52 53 55 61 63 60 58 53 50 51 52 51 66 57 7 324 192 193 196 194 197 205 219 235 232 228 225 224 223 222 219 217 215 209 211 209 207 200 190 188
40 46 50 52 53 53 55 62 55 47 26 42 69 59 60 59 39 34 42 169 176 188 193 199 211 224 230 230 229 228 224 221 224 218 218 215 214 217 215 215 203 190 182
39 42 45 48 49 48 46 48 48 40 34 78 91 70 68 55 51 55 66 109 132 169 188 200 209 212 224 233 232 233 234 226 217 218 221 220 218 214 213 215 208 196 189
38 40 43 44 47 48 53 51 46 41 49 69 69 66 57 49 47 44 62 78 102 144 176 195 202 205 208 212 218 219 228 222 209 215 219 214 213 211 213 213 210 198 194
40 41 43 47 48 46 50 53 53 52 54 62 57 50 47 43 43 44 47 54 66 115 180 196 196 216 218 226 225 222 227 214 216 217 216 217 216 209 211 211 203 199 197
42 43 49 52 54 52 50 53 52 48 52 61 59 51 40 39 40 47 46 46 44 59 129 150 179 216 239 243 240 220 228 219 217 223 218 215 214 212 211 212 207 208 213
42 44 48 50 50 49 46 46 45 50 50 49 47 41 38 35 33 40 46 44 37 23 38 76 92 265 253 230 229 225 232 225 228 223 214 210 210 211 215 218 219 215 214
43 46 47 49 45 42 41 42 47 49 47 44 40 37 34 29 34 40 40 35 32 32 47 62 354 277 258 245 241 241 239 225 231 234 227 218 217 218 217 215 217 216 218
43 45 46 48 46 42 40 40 44 48 46 43 37 32 30 24 26 29 24 20 16 22 22 356 309 283 268 259 251 248 244 231 246 255 236 224 215 216 219 220 220 218 223
41 43 45 44 42 40 37 37 41 44 42 38 28 22 27 25 20 14 12 5 8 343 316 305 294 285 273 263 262 269 259 252 260 251 242 230 220 219 223 224 223 223 226
39 41 42 43 40 39 37 34 35 33 28 24 17 10 14 18 11 8 2 354 344 327 314 294 281 275 271 269 275 275 254 255 265 251 238 233 230 233 232 231 229 230 229
39 40 40 39 37 37 37 33 30 27 22 16 13 13 9 9 8 7 358 353 340 324 314 307 294 279 273 271 278 274 265 259 255 247 240 242 242 241 237 234 234 234 232
35 38 35 30 29 32 36 33 23 19 18 15 16 15 11 11 13 11 7 0 353 339 330 317 299 288 292 294 292 286 270 269 262 251 244 243 244 240 239 242 238 237 233
28 29 30 30 28 25 26 24 21 15 12 11 11 10 12 20 18 12 9 1 356 345 339 336 331 320 315 306 303 299 280 270 259 255 248 249 244 242 246 245 238 232 233
23 23 22 20 21 22 22 20 17 15 9 5 10 11 17 20 9 8 7 4 359 350 346 344 344 331 317 314 311 306 296 277 263 261 257 249 250 250 251 249 242 236 234
17 18 16 18 16 15 15 13 9 6 7 7 13 11 13 12 3 4 3 3 355 344 339 337 333 329 324 313 307 302 295 281 271 267 267 260 258 255 252 250 248 242 240
11 11 14 16 15 15 13 8 4 3 2 7 9 9 12 9 3 357 357 358 348 342 340 337 325 325 323 316 309 301 301 290 281 278 269 269 265 264 258 254 253 248 245
12 9 8 11 10 9 9 8 7 1 353 357 2 6 5 5 5 1 356 349 338 331 328 326 323 319 317 316 312 305 304 297 287 287 284 279 274 268 263 260 257 252 248
13 10 6 4 3 4 6 8 5 360 356 351 351 351 353 352 354 356 350 340 333 330 321 316 317 316 317 318 316 307 298 295 289 288 287 285 278 271 266 264 262 257 256
8 7 5 4 3 3 3 360 359 355 350 345 341 339 338 336 338 340 343 339 329 325 322 316 317 319 319 318 314 308 300 294 288 286 287 285 279 273 268 266 266 263 260
1 1 4 2 1 360 356 352 349 345 341 339 336 331 328 324 323 328 328 328 324 321 318 316 316 319 317 318 315 309 302 293 293 292 291 288 282 276 272 269 268 262 260
357 358 358 359 356 354 351 346 345 341 335 330 327 324 320 317 317 326 326 324 318 314 313 313 312 312 312 310 309 306 300 294 290 287 285 285 283 282 277 272 272 265 262
353 352 352 351 350 349 346 342 340 332 325 320 320 320 321 318 316 320 320 321 316 309 307 304 306 305 304 304 303 301 298 295 290 288 285 283 282 282 281 278 276 268 263
347 345 345 344 344 343 341 337 334 327 323 322 320 318 318 315 314 313 312 314 313 309 305 302 300 300 299 298 297 297 296 294 289 285 283 281 279 279 279 278 276 273 270
Height
5882 5880 5880 5879 5878 5878 5877 5877 5876 5876 5876 5876 5876 5876 5875 5875 5875 5874 5872 5872 5872 5872 5873 5875 5876 5877 5878 5879 5879 5879 5880 5880 5880 5881 5881 5881 5881 5881 5882 5882 5882 5883 5883
5882 5881 5880 5880 5879 5878 5878 5877 5877 5877 5876 5876 5876 5876 5875 5875 5874 5873 5871 5870 5870 5870 5872 5874 5875 5877 5877 5878 5878 5878 5879 5880 5880 5880 5880 5881 5881 5881 5881 5881 5882 5882 5883
5883 5882 5881 5880 5879 5879 5878 5878 5877 5877 5876 5876 5876 5876 5875 5875 5874 5872 5871 5869 5869 5870 5871 5873 5875 5876 5876 5877 5877 5878 5878 5879 5879 5879 5880 5880 5881 5881 5881 5881 5881 5882 5883
5884 5883 5882 5881 5880 5879 5879 5878 5878 5877 5875 5874 5875 5876 5875 5875 5874 5872 5871 5870 5869 5870 5871 5873 5874 5875 5875 5876 5876 5877 5877 5878 5878 5878 5879 5879 5880 5880 5881 5881 5881 5882 5883
5885 5884 5883 5882 5881 5880 5879 5878 5878 5876 5873 5870 5874 5876 5876 5876 5875 5873 5872 5871 5870 5871 5872 5873 5874 5875 5875 5875 5876 5876 5876 5876 5877 5877 5878 5879 5879 5880 5880 5881 5881 5882 5882
5885 5884 5883 5882 5881 5881 5880 5879 5878 5877 5875 5874 5875 5876 5876 5876 5875 5874 5873 5873 5872 5872 5873 5874 5875 5875 5875 5875 5875 5876 5876 5876 5876 5877 5877 5878 5878 5878 5879 5879 5880 5881 5882
5886 5885 5884 5883 5882 5881 5881 5880 5879 5878 5877 5877 5877 5877 5877 5876 5876 5875 5875 5874 5874 5874 5874 5874 5875 5875 5875 5875 5875 5875 5875 5875 5875 5876 5876 5877 5877 5877 5878 5879 5879 5880 5881
5887 5886 5885 5884 5883 5882 5882 5881 5880 5879 5879 5878 5878 5878 5877 5877 5877 5876 5876 5875 5875 5875 5874 5874 5875 5875 5875 5874 5875 5875 5875 5875 5875 5875 5876 5876 5877 5877 5877 5878 5878 5879 5880
5888 5887 5886 5885 5884 5883 5883 5882 5881 5880 5880 5879 5879 5878 5878 5877 5877 5877 5876 5876 5875 5875 5875 5874 5875 5875 5874 5874 5874 5874 5874 5874 5874 5874 5874 5875 5875 5875 5876 5876 5877 5878 5879
5890 5889 5887 5886 5885 5884 5883 5883 5882 5881 5880 5880 5879 5878 5878 5878 5877 5877 5876 5876 5875 5875 5875 5874 5874 5874 5874 5874 5873 5873 5873 5873 5873 5873 5873 5874 5874 5874 5874 5875 5875 5876 5877
5891 5890 5889 5888 5886 5885 5884 5883 5883 5882 5881 5881 5880 5879 5878 5878 5877 5877 5876 5876 5875 5875 5874 5874 5874 5873 5873 5873 5873 5873 5872 5872 5872 5872 5872 5872 5872 5873 5873 5874 5874 5875 5876
5892 5891 5890 5888 5887 5886 5885 5884 5883 5882 5882 5881 5880 5880 5878 5878 5877 5877 5876 5876 5875 5875 5874 5874 5873 5873 5872 5872 5872 5872 5871 5871 5870 5870 5870 5871 5871 5871 5872 5872 5873 5873 5874
5893 5892 5890 5889 5888 5886 5885 5884 5884 5883 5882 5882 5881 5880 5879 5878 5877 5877 5876 5876 5875 5875 5874 5873 5873 5872 5872 5871 5871 5871 5870 5870 5869 5869 5869 5869 5869 5870 5870 5871 5871 5872 5872
5894 5893 5892 5890 5889 5887 5886 5885 5884 5883 5883 5882 5881 5880 5879 5878 5878 5877 5876 5875 5875 5874 5874 5873 5872 5871 5871 5870 5870 5870 5869 5868 5868 5867 5867 5867 5868 5868 5869 5869 5870 5870 5871
5895 5894 5892 5891 5889 5888 5886 5885 5884 5884 5883 5882 5881 5880 5879 5879 5878 5877 5876 5875 5874 5874 5873 5872 5871 5871 5870 5870 5869 5868 5868 5867 5866 5866 5866 5866 5866 5867 5867 5867 5868 5868 5869
5895 5893 5892 5891 5890 5888 5887 5885 5884 5883 5883 5882 5881 5880 5879 5878 5878 5877 5876 5875 5874 5873 5872 5872 5871 5870 5869 5869 5868 5867 5866 5865 5864 5864 5864 5864 5865 5865 5865 5866 5866 5866 5867
5895 5893 5892 5891 5889 5888 5887 5885 5884 5883 5882 5881 5881 5880 5879 5878 5878 5877 5876 5875 5874 5873 5872 5871 5870 5869 5869 5867 5867 5866 5865 5864 5863 5863 5863 5863 5863 5863 5863 5863 5864 5864 5865
5896 5894 5892 5891 5889 5888 5887 5885 5884 5883 5882 5881 5880 5880 5879 5878 5877 5876 5875 5874 5873 5872 5871 5870 5869 5869 5868 5867 5865 5864 5863 5862 5862 5862 5862 5861 5861 5861 5861 5861 5861 5862 5862
5897 5895 5893 5891 5890 5888 5887 5885 5884 5883 5882 5881 5880 5879 5878 5877 5876 5875 5874 5873 5872 5871 5870 5869 5868 5868 5867 5865 5864 5862 5861 5860 5860 5860 5860 5860 5860 5859 5859 5859 5859 5859 5859
5897 5896 5894 5892 5890 5888 5886 5885 5883 5882 5882 5881 5879 5878 5878 5877 5875 5874 5873 5872 5871 5870 5869 5868 5867 5866 5865 5864 5862 5861 5860 5859 5859 5858 5858 5858 5858 5857 5857 5857 5857 5857 5857
5897 5895 5894 5892 5890 5888 5886 5884 5883 5882 5881 5880 5879 5878 5877 5875 5874 5873 5872 5871 5870 5869 5868 5867 5866 5864 5863 5862 5860 5859 5859 5858 5857 5857 5856 5856 5856 5855 5855 5855 5855 5855 5854
5897 5895 5893 5891 5889 5887 5885 5884 5883 5881 5880 5879 5878 5877 5876 5874 5873 5872 5870 5869 5868 5867 5866 5865 5864 5863 5862 5860 5859 5858 5857 5857 5855 5855 5854 5854 5853 5853 5852 5852 5852 5851 5851
5897 5895 5893 5891 5888 5886 5885 5883 5882 5881 5879 5878 5877 5876 5874 5872 5871 5870 5869 5867 5866 5865 5864 5863 5862 5861 5859 5858 5857 5856 5855 5854 5853 5852 5852 5851 5850 5850 5849 5849 5849 5848 5848
5896 5894 5892 5890 5888 5885 5883 5882 5881 5879 5878 5876 5875 5874 5872 5871 5870 5868 5867 5866 5864 5863 5862 5861 5860 5858 5857 5856 5855 5854 5853 5852 5851 5850 5849 5848 5847 5847 5846 5846 5845 5845 5844
5895 5893 5891 5889 5887 5885 5883 5881 5880 5878 5876 5875 5873 5872 5870 5869 5867 5866 5865 5863 5862 5861 5860 5858 5857 5856 5854 5853 5852 5850 5849 5848 5848 5847 5846 5845 5844 5843 5843 5842 5842 5841 5841
5894 5892 5890 5887 5885 5883 5881 5879 5878 5876 5874 5873 5871 5869 5868 5867 5865 5863 5862 5861 5859 5858 5857 5855 5854 5852 5851 5850 5848 5847 5846 5845 5844 5843 5842 5841 5840 5839 5838 5838 5837 5837 5836